Language: 


Des rapports , des résumés tant et plus, au choix de chacun....


Données statistiques de la station
Quotidien Rapport Mai 3, 2017 Unités:  Anglais    Métrique   les deux
« Précédent Jour
Suivant Jour »
Quotidien Hebdomadaire Mensuel Annuel Actuel
  Haut: Bas: Moyen:
Température: 57 °F 46.8 °F 50.4 °F
Pt de rosée: 55.4 °F 46.4 °F 48.7 °F
Humidité: 98 % 75 % 93 %
Vitesse du vent: 8.5 mph 0 mph 3.7 mph
Rafales: 10.3 mph - -
Vent:- - SSE
Pression: 30.1 in 30 in -
Précipitation: 0.15 in    
Historical Graphs
 
 
Données statistiques pour Mai 3, 2017
Heure Température Point de rosée Pression Vent Vitesse du vent Refales Humidité Pluie (taux horaire)
00:04 48.7 °F 48.2 °F 30 in NNW 3.8 mph 6.5 mph 98 % 0 in
00:09 48.7 °F 48.2 °F 30 in West 2.2 mph 6.5 mph 98 % 0 in
00:14 48.6 °F 48.2 °F 30 in NW 2.9 mph 4.3 mph 98 % 0 in
00:19 48.6 °F 48.2 °F 30 in NW 2.7 mph 4 mph 98 % 0 in
00:24 48.4 °F 48.2 °F 30 in NNE 1.3 mph 4.9 mph 98 % 0 in
00:29 48.6 °F 48.2 °F 30 in NNW 1.3 mph 4.9 mph 98 % 0 in
00:34 48.4 °F 48.2 °F 30 in WNW 2.9 mph 4.9 mph 98 % 0 in
00:39 48.2 °F 48.2 °F 30 in NW 2 mph 4.3 mph 98 % 0 in
00:44 48.2 °F 48.2 °F 30 in NNE 2.2 mph 5.4 mph 98 % 0 in
00:49 48 °F 48.2 °F 30 in WNW 3.6 mph 5.4 mph 98 % 0 in
00:54 48 °F 48.2 °F 30 in NW 2.5 mph 4.9 mph 98 % 0 in
00:59 48 °F 48.2 °F 30 in NW 2.5 mph 4.9 mph 98 % 0 in
01:04 48 °F 48.2 °F 30 in WNW 2.9 mph 4.9 mph 98 % 0 in
01:09 48 °F 48.2 °F 30 in NNW 1.6 mph 6.3 mph 98 % 0 in
01:14 48 °F 48.2 °F 30 in North 5.4 mph 5.4 mph 98 % 0 in
01:19 48 °F 48.2 °F 30 in North 2 mph 5.6 mph 98 % 0 in
01:24 48.2 °F 48.2 °F 30 in NNW 3.8 mph 5.8 mph 98 % 0 in
01:29 48.2 °F 48.2 °F 30 in ENE 3.6 mph 6 mph 98 % 0 in
01:35 48 °F 48.2 °F 30 in NNW 4 mph 6 mph 98 % 0 in
01:40 48 °F 48.2 °F 30 in NW 3.8 mph 5.4 mph 98 % 0 in
01:45 48 °F 48.2 °F 30 in WNW 2.5 mph 5.6 mph 98 % 0 in
01:50 48 °F 48.2 °F 30 in Calm   5.6 mph 98 % 0 in
01:55 47.8 °F 48.2 °F 30 in North 1.3 mph 4 mph 98 % 0 in
02:00 47.8 °F 48.2 °F 30 in North 2.5 mph 4.9 mph 98 % 0 in
02:05 47.8 °F 48.2 °F 30 in North 3.8 mph 4.9 mph 98 % 0 in
02:10 48 °F 48.2 °F 30 in NW 5.6 mph 5.8 mph 98 % 0 in
02:15 47.8 °F 48.2 °F 30 in NNW 3.4 mph 5.8 mph 98 % 0 in
02:20 47.8 °F 48.2 °F 30 in WNW 1.6 mph 5.6 mph 98 % 0 in
02:25 47.8 °F 48.2 °F 30 in WNW 2.7 mph 5.4 mph 98 % 0 in
02:30 47.7 °F 48.2 °F 30 in NNW 3.6 mph 4 mph 98 % 0 in
02:35 47.7 °F 48.2 °F 30 in NNW 1.6 mph 4.3 mph 98 % 0 in
02:40 47.7 °F 48.2 °F 30 in NNW 1.3 mph 4.3 mph 98 % 0 in
02:45 47.5 °F 48.2 °F 30 in WNW 3.4 mph 4 mph 98 % 0 in
02:50 47.5 °F 48.2 °F 30 in NNW 1.1 mph 4 mph 98 % 0 in
02:55 47.5 °F 48.2 °F 30 in NW 2.7 mph 4 mph 98 % 0 in
03:01 47.3 °F 48.2 °F 30 in NNW 2.7 mph 4 mph 98 % 0 in
03:06 47.3 °F 48.2 °F 30 in NNW 1.1 mph 3.6 mph 98 % 0 in
03:11 47.3 °F 48.2 °F 30 in NW 2 mph 3.4 mph 98 % 0 in
03:16 47.1 °F 48.2 °F 30 in Calm   3.4 mph 98 % 0 in
03:21 47.1 °F 48.2 °F 30 in North 2.2 mph 4.3 mph 98 % 0 in
03:26 47.1 °F 48.2 °F 30 in NW 2.5 mph 4.3 mph 98 % 0 in
03:31 46.9 °F 48.2 °F 30 in North 2.7 mph 2.9 mph 98 % 0 in
03:36 47.1 °F 48.2 °F 30 in Calm   3.1 mph 98 % 0 in
03:41 46.9 °F 48.2 °F 30 in NW 1.6 mph 3.1 mph 98 % 0 in
03:46 47.1 °F 48.2 °F 30 in WNW 0.9 mph 3.1 mph 98 % 0 in
03:51 47.1 °F 48.2 °F 30 in NNW 1.1 mph 3.8 mph 98 % 0 in
03:56 47.3 °F 48.2 °F 30 in North 2.7 mph 3.8 mph 98 % 0 in
03:57 47.3 °F 48.2 °F 30 in North 3.4 mph 3.8 mph 98 % 0 in
04:02 47.3 °F 48.2 °F 30 in WNW 0.9 mph 3.8 mph 98 % 0 in
04:07 47.5 °F 48.2 °F 30 in North 2.5 mph 4.9 mph 98 % 0 in
04:12 47.5 °F 48.2 °F 30 in NNW 2 mph 4.9 mph 98 % 0 in
04:17 47.5 °F 48.2 °F 30 in NNW 1.1 mph 3.8 mph 98 % 0 in
04:22 47.3 °F 48.2 °F 30 in Calm   3.8 mph 98 % 0 in
04:27 47.3 °F 48.2 °F 30 in NE 2 mph 3.1 mph 98 % 0 in
04:32 47.1 °F 48.2 °F 30 in NNE 4 mph 4 mph 98 % 0 in
04:37 46.9 °F 48.2 °F 30 in North 3.4 mph 4 mph 98 % 0 in
04:42 46.9 °F 48.2 °F 30 in North 3.4 mph 4 mph 98 % 0 in
04:47 46.9 °F 48.2 °F 30 in NNE 3.1 mph 4 mph 98 % 0 in
04:52 46.9 °F 48.2 °F 30 in NE 3.1 mph 4 mph 98 % 0 in
04:57 46.9 °F 48.2 °F 30 in NE 4.3 mph 4.3 mph 98 % 0 in
05:02 46.9 °F 48.2 °F 30 in NNE 3.4 mph 4.7 mph 98 % 0 in
05:07 46.9 °F 48.2 °F 30 in NE 4.7 mph 4.7 mph 98 % 0 in
05:12 46.9 °F 48.2 °F 30 in NE 3.4 mph 4.9 mph 98 % 0 in
05:17 46.9 °F 48.2 °F 30 in NE 4 mph 4.9 mph 98 % 0 in
05:22 46.9 °F 48.2 °F 30 in NE 3.4 mph 4.3 mph 98 % 0 in
05:27 47.1 °F 48.2 °F 30 in NNE 3.1 mph 4 mph 98 % 0 in
05:33 47.1 °F 48.2 °F 30 in ENE 3.8 mph 4 mph 98 % 0 in
05:38 46.9 °F 48.2 °F 30 in NE 2.7 mph 4 mph 98 % 0 in
05:43 46.9 °F 48.2 °F 30 in NE 2.5 mph 4 mph 98 % 0 in
05:48 46.9 °F 48.2 °F 30 in NE 2.9 mph 4 mph 98 % 0 in
05:53 46.9 °F 48.2 °F 30 in NE 2.7 mph 4 mph 98 % 0 in
05:58 46.9 °F 48.2 °F 30 in Calm   3.4 mph 98 % 0 in
06:03 46.9 °F 48.2 °F 30 in ENE 2.7 mph 3.1 mph 98 % 0 in
06:06 46.9 °F 48.2 °F 30 in NE 3.1 mph 3.1 mph 98 % 0 in
06:11 46.9 °F 48.2 °F 30 in NNE 3.1 mph 3.8 mph 98 % 0 in
06:13 46.9 °F 48.2 °F 30 in North 3.1 mph 3.8 mph 98 % 0 in
06:17 46.9 °F 48.2 °F 30 in NNE 2.9 mph 3.8 mph 98 % 0 in
06:22 46.9 °F 48.2 °F 30 in NE 4.3 mph 4.9 mph 98 % 0 in
06:27 46.9 °F 48.2 °F 30 in NNE 3.4 mph 4.9 mph 98 % 0 in
06:32 46.9 °F 48.2 °F 30 in NE 1.3 mph 4.3 mph 98 % 0 in
06:37 46.9 °F 48.2 °F 30 in NNE 1.3 mph 3.8 mph 98 % 0 in
06:42 46.9 °F 48.2 °F 30 in NE 2.7 mph 3.1 mph 98 % 0 in
06:47 46.9 °F 48.2 °F 30 in Calm   3.4 mph 98 % 0 in
06:52 46.8 °F 46.4 °F 30 in NE 0.9 mph 3.4 mph 98 % 0 in
06:57 46.8 °F 46.4 °F 30 in NNE 2 mph 3.1 mph 98 % 0.01 in
07:02 46.8 °F 46.4 °F 30 in NNE 2.2 mph 3.1 mph 98 % 0.01 in
07:04 46.8 °F 46.4 °F 30 in NNE 2 mph 3.1 mph 98 % 0.01 in
07:09 46.8 °F 46.4 °F 30 in North 2.5 mph 3.4 mph 98 % 0.01 in
07:14 46.8 °F 46.4 °F 30 in NNW 1.6 mph 3.6 mph 98 % 0.01 in
07:19 46.9 °F 48.2 °F 30 in NNW 2.5 mph 3.6 mph 98 % 0.01 in
07:24 46.9 °F 48.2 °F 30 in NNE 2.9 mph 3.4 mph 98 % 0.01 in
07:29 46.9 °F 48.2 °F 30 in NNE 3.4 mph 3.4 mph 98 % 0.01 in
07:35 46.9 °F 48.2 °F 30 in North 1.1 mph 3.4 mph 98 % 0.01 in
07:40 47.1 °F 48.2 °F 30 in Calm   2.7 mph 98 % 0.02 in
07:45 47.1 °F 48.2 °F 30 in NNW 1.3 mph 3.1 mph 98 % 0.02 in
07:50 47.1 °F 48.2 °F 30 in North 0.9 mph 3.1 mph 98 % 0.02 in
07:55 47.3 °F 48.2 °F 30 in Calm   2.7 mph 98 % 0.01 in
08:00 47.3 °F 48.2 °F 30 in Calm   2.7 mph 98 % 0.01 in
08:05 47.5 °F 48.2 °F 30 in Calm     98 % 0.01 in
08:10 47.7 °F 48.2 °F 30 in Calm     98 % 0.01 in
08:15 47.7 °F 48.2 °F 30 in Calm     98 % 0.01 in
08:20 47.8 °F 48.2 °F 30 in North 1.6 mph 3.4 mph 98 % 0.01 in
08:25 48 °F 48.2 °F 30 in Calm   3.4 mph 98 % 0.01 in
08:30 48.2 °F 48.2 °F 30 in Calm     98 % 0.01 in
08:35 48.2 °F 48.2 °F 30 in Calm   1.3 mph 98 % 0.01 in
08:40 48.4 °F 48.2 °F 30 in Calm   2 mph 98 % 0 in
08:45 48.6 °F 48.2 °F 30 in North 2.2 mph 2.2 mph 98 % 0.01 in
08:50 48.6 °F 48.2 °F 30 in North 1.3 mph 2.7 mph 98 % 0.01 in
08:55 48.4 °F 48.2 °F 30 in North 0.9 mph 2.7 mph 98 % 0.01 in
08:59 48.6 °F 48.2 °F 30 in Calm   2.7 mph 98 % 0.02 in
09:00 48.6 °F 48.2 °F 30 in Calm   2.7 mph 98 % 0.02 in
09:05 48.7 °F 48.2 °F 30 in NE 2.5 mph 2.7 mph 98 % 0.02 in
09:10 48.7 °F 48.2 °F 30 in NNW 2.2 mph 3.1 mph 98 % 0.04 in
09:15 48.7 °F 48.2 °F 30 in North 2 mph 3.1 mph 98 % 0.04 in
09:20 48.7 °F 48.2 °F 30 in NNW 3.6 mph 4.3 mph 98 % 0.04 in
09:25 48.7 °F 48.2 °F 30 in North 2.7 mph 4.3 mph 98 % 0.05 in
09:30 48.7 °F 48.2 °F 30 in North 4.9 mph 5.8 mph 98 % 0.05 in
09:35 48.7 °F 48.2 °F 30 in North 3.1 mph 5.8 mph 98 % 0.06 in
09:40 48.7 °F 48.2 °F 30 in North 5.6 mph 5.6 mph 98 % 0.06 in
09:41 48.7 °F 48.2 °F 30 in North 2.7 mph 5.6 mph 98 % 0.06 in
09:45 48.6 °F 48.2 °F 30 in NE 4 mph 5.8 mph 98 % 0.04 in
09:50 48.6 °F 48.2 °F 30 in NE 5.8 mph 7.4 mph 98 % 0.05 in
09:55 48.6 °F 48.2 °F 30 in NNE 4 mph 8.7 mph 98 % 0.05 in
10:01 48.4 °F 48.2 °F 30 in NE 4.9 mph 8.7 mph 98 % 0.06 in
10:06 48.2 °F 48.2 °F 30 in NNE 7.4 mph 8.7 mph 98 % 0.06 in
10:11 48 °F 48.2 °F 30 in NE 8.1 mph 8.7 mph 98 % 0.05 in
10:16 47.8 °F 48.2 °F 30 in NNE 6.5 mph 8.1 mph 98 % 0.05 in
10:21 48 °F 48.2 °F 30 in NE 6.3 mph 7.8 mph 98 % 0.05 in
10:26 48 °F 48.2 °F 30 in NE 4.7 mph 7.2 mph 98 % 0.05 in
10:31 48.2 °F 48.2 °F 30 in NNE 6 mph 7.2 mph 98 % 0.05 in
10:36 48.4 °F 48.2 °F 30 in East 4.9 mph 7.2 mph 98 % 0.04 in
10:41 48.6 °F 48.2 °F 30 in East 4.7 mph 6 mph 98 % 0.05 in
10:46 48.6 °F 48.2 °F 30 in ENE 4.3 mph 7.2 mph 98 % 0.05 in
10:48 48.6 °F 48.2 °F 30 in ENE 6 mph 7.2 mph 98 % 0.04 in
10:53 48.6 °F 48.2 °F 30 in ENE 3.6 mph 7.2 mph 98 % 0.04 in
10:58 48.7 °F 48.2 °F 30 in ENE 7.6 mph 7.6 mph 98 % 0.02 in
11:03 48.6 °F 48.2 °F 30 in NE 3.6 mph 7.8 mph 98 % 0.03 in
11:08 48.7 °F 48.2 °F 30 in NE 3.4 mph 7.8 mph 98 % 0.03 in
11:13 48.9 °F 48.2 °F 30 in East 6.3 mph 7.4 mph 98 % 0.03 in
11:18 48.9 °F 48.2 °F 30 in ENE 6.3 mph 8.1 mph 98 % 0.03 in
11:23 49.1 °F 50 °F 30 in ENE 5.4 mph 8.1 mph 98 % 0.02 in
11:28 49.3 °F 50 °F 30 in ENE 2.7 mph 7.4 mph 98 % 0.02 in
11:33 49.6 °F 50 °F 30 in ENE 3.1 mph 5.8 mph 98 % 0.03 in
11:38 49.8 °F 50 °F 30 in ENE 4.9 mph 6.3 mph 98 % 0.03 in
11:43 49.8 °F 50 °F 30 in ENE 4.9 mph 6.3 mph 97 % 0.02 in
11:48 50 °F 50 °F 30 in NE 3.8 mph 5.8 mph 97 % 0.02 in
11:53 50.4 °F 50 °F 30 in NE 4 mph 4.9 mph 97 % 0.02 in
11:58 50.5 °F 50 °F 30 in ENE 4.5 mph 7.4 mph 96 % 0.02 in
12:03 50.7 °F 50 °F 30 in ENE 3.6 mph 7.4 mph 96 % 0.01 in
12:08 51.1 °F 50 °F 30 in NE 6.3 mph 6.3 mph 96 % 0.01 in
12:13 51.1 °F 50 °F 30 in NNE 2.7 mph 6.5 mph 96 % 0.01 in
12:18 51.3 °F 50 °F 30 in NNE 6.3 mph 7.6 mph 95 % 0.01 in
12:23 51.4 °F 50 °F 30 in NE 3.8 mph 7.6 mph 94 % 0.01 in
12:28 51.6 °F 50 °F 30 in NE 8.1 mph 8.1 mph 94 % 0.01 in
12:33 51.6 °F 50 °F 30 in NE 6.3 mph 8.1 mph 94 % 0 in
12:38 52 °F 50 °F 30 in Calm   8.1 mph 93 % 0 in
12:43 52.3 °F 50 °F 30 in North 6 mph 6.5 mph 93 % 0 in
12:48 52.3 °F 50 °F 30 in NE 4 mph 7.2 mph 93 % 0 in
12:53 52.2 °F 50 °F 30 in NE 2.9 mph 7.2 mph 93 % 0 in
12:58 52.2 °F 50 °F 30 in NNE 4 mph 6.5 mph 93 % 0 in
13:03 52 °F 50 °F 30 in North 5.4 mph 6.5 mph 93 % 0 in
13:08 51.6 °F 50 °F 30 in NNE 5.6 mph 6.3 mph 93 % 0 in
13:13 51.1 °F 50 °F 30 in North 4 mph 8.1 mph 93 % 0 in
13:19 50.9 °F 50 °F 30 in NE 3.8 mph 8.1 mph 93 % 0 in
13:24 51.1 °F 50 °F 30 in North 4.9 mph 7.6 mph 94 % 0 in
13:29 51.1 °F 50 °F 30 in NE 4.3 mph 6.5 mph 94 % 0 in
13:34 50.9 °F 50 °F 30 in NNE 6.5 mph 6.5 mph 94 % 0 in
13:39 50.7 °F 48.2 °F 30 in NE 3.8 mph 6.5 mph 94 % 0 in
13:44 50.7 °F 48.2 °F 30 in NNE 3.8 mph 6 mph 94 % 0 in
13:49 50.5 °F 48.2 °F 30 in ENE 3.4 mph 5.8 mph 94 % 0 in
13:54 50.4 °F 50 °F 30 in NE 5.4 mph 6.5 mph 95 % 0 in
13:59 50.4 °F 50 °F 30 in ENE 6.3 mph 8.1 mph 95 % 0 in
14:04 50.2 °F 48.2 °F 30 in ENE 5.6 mph 8.1 mph 95 % 0 in
14:09 50 °F 48.2 °F 30 in ENE 5.4 mph 7.6 mph 95 % 0 in
14:14 50 °F 48.2 °F 30 in NE 8.1 mph 8.7 mph 95 % 0 in
14:19 50.2 °F 50 °F 30 in NE 4 mph 8.7 mph 96 % 0 in
14:24 50.5 °F 50 °F 30 in NE 6.3 mph 8.7 mph 96 % 0 in
14:29 51.3 °F 50 °F 30 in Calm   7.6 mph 97 % 0 in
14:34 51.8 °F 51.8 °F 30 in NNE 6.5 mph 7.6 mph 97 % 0 in
14:39 52.7 °F 51.8 °F 30 in NNE 5.6 mph 8.1 mph 97 % 0 in
14:44 53.4 °F 53.6 °F 30 in ENE 6.5 mph 8.1 mph 96 % 0 in
14:49 54.5 °F 55.4 °F 30 in NNE 5.6 mph 7.8 mph 96 % 0 in
14:54 54.5 °F 53.6 °F 30 in NE 8.1 mph 8.1 mph 95 % 0 in
14:59 55.4 °F 53.6 °F 30 in East 4.5 mph 8.5 mph 93 % 0 in
15:04 56.1 °F 55.4 °F 30 in ENE 5.8 mph 8.5 mph 93 % 0 in
15:09 55.8 °F 53.6 °F 30 in NE 5.8 mph 8.7 mph 91 % 0 in
15:14 54.3 °F 51.8 °F 30 in NE 4.9 mph 10.1 mph 88 % 0 in
15:19 53.6 °F 50 °F 30 in NE 5.6 mph 10.1 mph 88 % 0 in
15:24 53.1 °F 50 °F 30 in NE 6.3 mph 9.6 mph 90 % 0 in
15:28 52.7 °F 50 °F 30 in ENE 5.6 mph 9.6 mph 90 % 0 in
15:33 52.3 °F 50 °F 30 in East 8.1 mph 8.7 mph 89 % 0 in
15:38 52 °F 48.2 °F 30 in ENE 5.8 mph 8.7 mph 89 % 0 in
15:43 52 °F 48.2 °F 30 in ENE 4.3 mph 7.6 mph 90 % 0 in
15:48 52.2 °F 50 °F 30 in ENE 3.6 mph 7.2 mph 90 % 0 in
15:53 52.7 °F 50 °F 30 in ENE 3.8 mph 7.2 mph 91 % 0 in
15:58 53.6 °F 51.8 °F 30 in East 4.3 mph 7.6 mph 91 % 0 in
16:00 53.8 °F 51.8 °F 30 in NNE 3.8 mph 7.6 mph 91 % 0 in
16:05 54.9 °F 53.6 °F 30 in ENE 6 mph 7.6 mph 91 % 0 in
16:10 56.3 °F 53.6 °F 30 in ENE 5.8 mph 7.2 mph 89 % 0 in
16:15 57 °F 53.6 °F 30 in NE 7.6 mph 8.1 mph 88 % 0 in
16:21 56.5 °F 51.8 °F 30 in NE 5.8 mph 10.3 mph 84 % 0 in
16:23 56.5 °F 51.8 °F 30 in East 2.9 mph 10.3 mph 84 % 0 in
16:28 56.5 °F 51.8 °F 30 in NE 5.4 mph 8.1 mph 83 % 0 in
16:33 56.1 °F 51.8 °F 30 in ENE 4.9 mph 7.4 mph 83 % 0 in
16:37 55.2 °F 50 °F 30 in East 5.6 mph 7.6 mph 82 % 0 in
16:43 54.5 °F 50 °F 30 in East 5.8 mph 7.8 mph 82 % 0 in
16:48 54.5 °F 50 °F 30 in ENE 6.3 mph 7.8 mph 83 % 0 in
16:53 54.5 °F 50 °F 30 in ENE 8.1 mph 8.5 mph 82 % 0 in
16:58 54.5 °F 50 °F 30 in ENE 6.9 mph 8.5 mph 82 % 0 in
17:03 54.5 °F 50 °F 30 in ESE 6 mph 8.7 mph 81 % 0 in
17:08 54.5 °F 50 °F 30 in ENE 7.8 mph 8.7 mph 81 % 0 in
17:13 54.5 °F 50 °F 30 in ENE 6.5 mph 8.1 mph 80 % 0 in
17:18 54.5 °F 50 °F 30 in East 3.1 mph 8.1 mph 80 % 0 in
17:23 54.5 °F 50 °F 30 in East 2.2 mph 7.4 mph 80 % 0 in
17:28 54.3 °F 48.2 °F 30 in NE 2.9 mph 7.4 mph 81 % 0 in
17:33 54.3 °F 48.2 °F 30 in East 3.6 mph 7.4 mph 81 % 0 in
17:38 54.3 °F 50 °F 30 in Calm   5.8 mph 82 % 0 in
17:43 54.3 °F 50 °F 30 in ENE 6 mph 6 mph 82 % 0 in
17:48 54.5 °F 50 °F 30 in East 4.9 mph 6.7 mph 81 % 0 in
17:53 54.9 °F 50 °F 30 in East 4.9 mph 6.7 mph 80 % 0 in
17:58 55 °F 50 °F 30 in East 3.1 mph 6 mph 81 % 0 in
18:03 55.2 °F 50 °F 30 in ENE 3.6 mph 6 mph 80 % 0 in
18:09 55.6 °F 50 °F 30 in East 0.9 mph 6 mph 79 % 0 in
18:14 55.2 °F 50 °F 30 in NNE 4.7 mph 6.5 mph 79 % 0 in
18:20 55.2 °F 50 °F 30 in ENE 4.9 mph 6.5 mph 79 % 0 in
18:23 55.2 °F 50 °F 30 in East 0.9 mph 6.5 mph 79 % 0 in
18:28 55.4 °F 48.2 °F 30 in Calm   6 mph 78 % 0 in
18:33 55.8 °F 50 °F 30 in East 2.9 mph 4.7 mph 78 % 0 in
18:38 55.6 °F 48.2 °F 30 in East 2.9 mph 4.7 mph 77 % 0 in
18:43 55.2 °F 48.2 °F 30 in NE 6.5 mph 6.5 mph 77 % 0 in
18:48 54.9 °F 48.2 °F 30 in East 5.8 mph 8.5 mph 77 % 0 in
18:53 54.9 °F 48.2 °F 30 in NNE 7.8 mph 8.5 mph 78 % 0 in
18:58 55.2 °F 48.2 °F 30 in ENE 5.8 mph 8.5 mph 78 % 0 in
19:03 55.4 °F 48.2 °F 30 in ENE 4.9 mph 7.8 mph 78 % 0 in
19:08 55.8 °F 50 °F 30 in NNE 4.7 mph 7.4 mph 78 % 0 in
19:13 55.6 °F 48.2 °F 30 in NE 4.3 mph 7.6 mph 77 % 0 in
19:18 55.4 °F 48.2 °F 30 in NE 6.3 mph 7.6 mph 77 % 0 in
19:23 55.6 °F 48.2 °F 30 in NNE 5.4 mph 8.5 mph 76 % 0 in
19:28 55.6 °F 48.2 °F 30 in NE 4.3 mph 8.5 mph 76 % 0 in
19:33 55.8 °F 48.2 °F 30 in NE 7.2 mph 7.6 mph 76 % 0 in
19:38 55.4 °F 48.2 °F 30 in NE 8.5 mph 8.5 mph 76 % 0 in
19:44 55.4 °F 48.2 °F 30 in NE 6 mph 8.7 mph 75 % 0 in
19:49 55.6 °F 48.2 °F 30 in NE 5.6 mph 8.7 mph 75 % 0 in
19:54 55.6 °F 48.2 °F 30 in North 4.7 mph 8.7 mph 75 % 0 in
19:59 55.2 °F 48.2 °F 30 in North 5.8 mph 8.7 mph 76 % 0 in
20:04 54.9 °F 48.2 °F 30 in NE 5.6 mph 7.6 mph 78 % 0 in
20:09 54.5 °F 48.2 °F 30 in NE 4 mph 6.5 mph 79 % 0 in
20:14 54.3 °F 48.2 °F 30 in NNE 5.4 mph 6.5 mph 80 % 0 in
20:19 54.1 °F 48.2 °F 30 in NE 3.1 mph 6.5 mph 80 % 0 in
20:24 53.8 °F 48.2 °F 30 in North 4.9 mph 5.8 mph 81 % 0 in
20:29 53.4 °F 48.2 °F 30 in NNE 4 mph 5.8 mph 82 % 0 in
20:34 53.2 °F 48.2 °F 30 in NE 4 mph 5.8 mph 83 % 0 in
20:39 52.9 °F 48.2 °F 30 in ENE 2.9 mph 5.6 mph 84 % 0 in
20:44 52.7 °F 48.2 °F 30 in NNE 2.5 mph 5.6 mph 84 % 0 in
20:49 52.3 °F 48.2 °F 30 in NW 3.6 mph 4.3 mph 84 % 0 in
20:51 52.3 °F 48.2 °F 30 in North 2.7 mph 4.3 mph 84 % 0 in
20:56 52.2 °F 48.2 °F 30.1 in NNE 2.5 mph 4.3 mph 84 % 0 in
21:01 52 °F 48.2 °F 30.1 in North 2.9 mph 4.3 mph 85 % 0 in
21:06 52 °F 48.2 °F 30.1 in NW 2 mph 4.5 mph 85 % 0 in
21:11 51.8 °F 48.2 °F 30.1 in North 3.4 mph 6 mph 85 % 0 in
21:16 51.8 °F 48.2 °F 30.1 in North 2.9 mph 6 mph 85 % 0 in
21:21 51.6 °F 48.2 °F 30.1 in NNE 4.9 mph 4.9 mph 86 % 0 in
21:26 51.6 °F 48.2 °F 30.1 in NE 3.6 mph 5.6 mph 86 % 0 in
21:31 51.3 °F 48.2 °F 30.1 in NNW 4 mph 5.6 mph 86 % 0 in
21:36 51.1 °F 48.2 °F 30.1 in North 4.3 mph 5.4 mph 86 % 0 in
21:41 50.9 °F 48.2 °F 30.1 in North 2.7 mph 5.8 mph 86 % 0 in
21:46 50.7 °F 48.2 °F 30.1 in North 2.7 mph 5.8 mph 87 % 0 in
21:50 50.5 °F 48.2 °F 30.1 in North 2.2 mph 5.8 mph 87 % 0 in
21:51 50.5 °F 48.2 °F 30.1 in North 3.1 mph 4.5 mph 87 % 0 in
21:56 50.4 °F 48.2 °F 30.1 in North 1.6 mph 4.5 mph 87 % 0 in
22:01 50.2 °F 46.4 °F 30.1 in NNW 2.5 mph 5.4 mph 88 % 0 in
22:06 50.2 °F 46.4 °F 30.1 in NNW 2.9 mph 5.4 mph 88 % 0 in
22:11 50.2 °F 48.2 °F 30.1 in North 2.5 mph 4 mph 89 % 0 in
22:16 50.2 °F 48.2 °F 30.1 in North 5.4 mph 5.4 mph 89 % 0 in
22:21 50.2 °F 48.2 °F 30.1 in NNE 2.9 mph 5.4 mph 89 % 0 in
22:26 50.2 °F 48.2 °F 30.1 in North 4.5 mph 5.4 mph 89 % 0 in
22:31 50.2 °F 48.2 °F 30.1 in North 3.1 mph 6.3 mph 89 % 0 in
22:36 50 °F 48.2 °F 30.1 in North 5.4 mph 6.3 mph 89 % 0 in
22:41 50.2 °F 48.2 °F 30.1 in North 4.3 mph 5.8 mph 90 % 0 in
22:46 50.2 °F 48.2 °F 30.1 in North 3.6 mph 5.6 mph 90 % 0 in
22:51 50.2 °F 48.2 °F 30.1 in NNE 6.3 mph 8.5 mph 91 % 0 in
22:56 50.2 °F 48.2 °F 30.1 in North 6.3 mph 8.5 mph 91 % 0 in
23:01 50.2 °F 48.2 °F 30.1 in North 4 mph 7.2 mph 91 % 0 in
23:07 50.2 °F 48.2 °F 30.1 in WNW 4.3 mph 8.7 mph 91 % 0 in
23:12 50.2 °F 48.2 °F 30.1 in NNE 3.8 mph 8.7 mph 91 % 0 in
23:17 50.2 °F 48.2 °F 30.1 in NNE 3.6 mph 8.5 mph 91 % 0 in
23:22 50 °F 48.2 °F 30.1 in NE 4.9 mph 7.4 mph 91 % 0 in
23:27 49.6 °F 48.2 °F 30.1 in North 3.1 mph 6.5 mph 91 % 0 in
23:32 49.5 °F 48.2 °F 30.1 in NE 4 mph 5.6 mph 92 % 0 in
23:37 49.3 °F 48.2 °F 30.1 in NE 4.3 mph 5.4 mph 92 % 0 in
23:42 49.1 °F 48.2 °F 30.1 in North 5.4 mph 6 mph 93 % 0 in
23:47 48.9 °F 48.2 °F 30.1 in NNE 3.8 mph 6.3 mph 93 % 0 in
23:52 48.7 °F 48.2 °F 30.1 in ENE 2.5 mph 6.3 mph 93 % 0 in
23:57 48.7 °F 48.2 °F 30.1 in NE 3.1 mph 5.8 mph 93 % 0 in
Le Gheer Warneton
Courtoisie de Weather Underground - 2.25 mb

Mise a jour : 17/12/2017 22:23:12
Généré par Cumulus 1.9.4 (1099)